| time (UTC) | temp F | wind direction | speed MPH | gust MPH | rain 1hr in | rain 24hr in | rain mn in | humidity % | barometer mb |
| 20260903040042 | 63 | 303 | 5.0 | 12.0 | 0.00 | 0.01 | 0.01 | 77 | 1017.4 |
| 20260903034541 | 61 | 304 | 5.0 | 11.0 | 0.00 | 0.01 | 0.01 | 80 | 1017.9 |
| 20260903033035 | 61 | 296 | 6.0 | 18.0 | 0.00 | 0.01 | 0.01 | 78 | 1018.1 |
| 20260903031532 | 59 | 318 | 6.0 | 14.0 | 0.00 | 0.01 | 0.01 | 82 | 1018.4 |
| 20260903030030 | 59 | 340 | 5.0 | 13.0 | 0.00 | 0.01 | 0.01 | 83 | 1018.6 |
| 20260903024529 | 60 | 307 | 6.0 | 13.0 | 0.00 | 0.01 | 0.01 | 78 | 1018.7 |
| 20260903023025 | 60 | 315 | 5.0 | 11.0 | 0.00 | 0.01 | 0.01 | 77 | 1019.0 |
| 20260903021524 | 60 | 334 | 5.0 | 11.0 | 0.00 | 0.01 | 0.01 | 79 | 1019.1 |
| 20260903020024 | 59 | 318 | 4.0 | 12.0 | 0.00 | 0.01 | 0.01 | 78 | 1019.2 |
| 20260903014522 | 59 | 313 | 6.0 | 10.0 | 0.00 | 0.01 | 0.01 | 79 | 1019.3 |
| 20260903013016 | 58 | 291 | 4.0 | 8.0 | 0.00 | 0.01 | 0.01 | 82 | 1019.4 |
| 20260903011516 | 58 | 282 | 5.0 | 8.0 | 0.00 | 0.01 | 0.01 | 82 | 1019.5 |
| 20260903010010 | 57 | 272 | 4.0 | 9.0 | 0.00 | 0.01 | 0.01 | 84 | 1019.5 |
| 20260903004507 | 56 | 303 | 3.0 | 5.0 | 0.00 | 0.01 | 0.01 | 88 | 1019.6 |
| 20260903003006 | 55 | 306 | 2.0 | 5.0 | 0.00 | 0.01 | 0.01 | 90 | 1019.7 |
| 20260903001501 | 54 | 333 | 2.0 | 4.0 | 0.00 | 0.01 | 0.01 | 92 | 1019.9 |
| 20260903000059 | 53 | 5 | 1.0 | 3.0 | 0.00 | 0.01 | 0.01 | 93 | 1019.9 |
| 20260902234615 | 52 | 5 | 0.0 | 4.0 | 0.00 | 0.01 | 0.01 | 93 | 1019.9 |
| 20260902233059 | 51 | 286 | 0.0 | 0.0 | 0.00 | 0.01 | 0.01 | 93 | 1019.9 |
| 20260902231553 | 50 | 283 | 0.0 | 0.0 | 0.00 | 0.01 | 0.01 | 93 | 1020.0 |
| 20260902230059 | 50 | 278 | 0.0 | 0.0 | 0.00 | 0.01 | 0.01 | 92 | 1019.9 |
| 20260902224607 | 50 | 276 | 0.0 | 0.0 | 0.00 | 0.01 | 0.01 | 92 | 1019.9 |
| 20260902223049 | 50 | 276 | 0.0 | 0.0 | 0.00 | 0.01 | 0.01 | 92 | 1019.8 |
| 20260902221548 | 50 | 274 | 0.0 | 0.0 | 0.00 | 0.01 | 0.01 | 92 | 1020.0 |
| 20260902220050 | 50 | 265 | 0.0 | 0.0 | 0.00 | 0.01 | 0.01 | 92 | 1020.0 |
| 20260902214544 | 50 | 275 | 0.0 | 0.0 | 0.00 | 0.01 | 0.01 | 91 | 1019.9 |
| 20260902213042 | 51 | 275 | 0.0 | 0.0 | 0.00 | 0.01 | 0.01 | 91 | 1019.8 |
| 20260902211540 | 51 | 272 | 0.0 | 0.0 | 0.00 | 0.01 | 0.01 | 91 | 1019.9 |
| 20260902210038 | 51 | 270 | 0.0 | 0.0 | 0.00 | 0.01 | 0.01 | 92 | 1019.8 |
| 20260902204539 | 52 | 268 | 0.0 | 0.0 | 0.00 | 0.01 | 0.01 | 91 | 1019.7 |
| 20260902203037 | 52 | 258 | 0.0 | 0.0 | 0.00 | 0.01 | 0.01 | 91 | 1019.7 |
| 20260902201537 | 52 | 265 | 0.0 | 0.0 | 0.01 | 0.01 | 0.01 | 91 | 1019.6 |
| 20260902200048 | 53 | 265 | 0.0 | 0.0 | 0.01 | 0.01 | 0.01 | 91 | 1019.7 |
| 20260902194530 | 53 | 259 | 0.0 | 0.0 | 0.01 | 0.01 | 0.01 | 91 | 1019.8 |
| 20260902193027 | 53 | 260 | 0.0 | 0.0 | 0.01 | 0.01 | 0.01 | 91 | 1020.0 |
| 20260902191530 | 53 | 261 | 0.0 | 0.0 | 0.00 | 0.00 | 0.00 | 91 | 1020.1 |
| 20260902190042 | 53 | 259 | 0.0 | 0.0 | 0.00 | 0.00 | 0.00 | 91 | 1020.3 |
| 20260902184521 | 53 | 260 | 0.0 | 0.0 | 0.00 | 0.00 | 0.00 | 91 | 1020.5 |
| 20260902183019 | 53 | 261 | 0.0 | 0.0 | 0.00 | 0.00 | 0.00 | 90 | 1020.6 |
| 20260902181516 | 53 | 259 | 0.0 | 0.0 | 0.00 | 0.00 | 0.00 | 90 | 1020.8 |
| 20260902180016 | 53 | 257 | 0.0 | 0.0 | 0.00 | 0.00 | 0.00 | 90 | 1020.8 |
| 20260902174515 | 53 | 257 | 0.0 | 0.0 | 0.00 | 0.00 | 0.00 | 89 | 1020.8 |
| 20260902173010 | 53 | 263 | 0.0 | 0.0 | 0.00 | 0.00 | 0.00 | 89 | 1021.0 |
| 20260902171508 | 53 | 261 | 0.0 | 0.0 | 0.00 | 0.00 | 0.00 | 89 | 1021.0 |
| 20260902170008 | 54 | 257 | 0.0 | 0.0 | 0.00 | 0.00 | 0.00 | 88 | 1021.1 |
| 20260902164509 | 54 | 263 | 0.0 | 0.0 | 0.00 | 0.00 | 0.00 | 88 | 1021.1 |
| 20260902163003 | 54 | 262 | 0.0 | 0.0 | 0.00 | 0.00 | 0.00 | 86 | 1021.2 |
| 20260902161600 | 54 | 266 | 0.0 | 0.0 | 0.00 | 0.00 | 0.00 | 85 | 1021.2 |
| 20260902160104 | 54 | 264 | 1.0 | 2.0 | 0.00 | 0.00 | 0.00 | 84 | 1021.3 |
| 20260902154557 | 55 | 263 | 0.0 | 2.0 | 0.00 | 0.00 | 0.00 | 84 | 1021.4 |
| 20260902153057 | 55 | 264 | 0.0 | 0.0 | 0.00 | 0.00 | 0.00 | 83 | 1021.5 |
| 20260902151557 | 55 | 260 | 0.0 | 1.0 | 0.00 | 0.00 | 0.00 | 83 | 1021.5 |
| 20260902150054 | 55 | 263 | 0.0 | 2.0 | 0.00 | 0.00 | 0.00 | 83 | 1021.6 |
| 20260902144554 | 55 | 257 | 0.0 | 2.0 | 0.00 | 0.00 | 0.00 | 83 | 1021.8 |
| 20260902143052 | 55 | 259 | 0.0 | 2.0 | 0.00 | 0.00 | 0.00 | 83 | 1021.9 |
| 20260902141550 | 55 | 254 | 0.0 | 0.0 | 0.00 | 0.00 | 0.00 | 82 | 1022.0 |
| 20260902140049 | 56 | 258 | 0.0 | 1.0 | 0.00 | 0.00 | 0.00 | 82 | 1022.1 |
| 20260902134547 | 56 | 264 | 0.0 | 3.0 | 0.00 | 0.00 | 0.00 | 81 | 1022.3 |
| 20260902133047 | 56 | 263 | 0.0 | 3.0 | 0.00 | 0.00 | 0.00 | 80 | 1022.4 |
| 20260902131543 | 56 | 360 | 0.0 | 2.0 | 0.00 | 0.00 | 0.00 | 80 | 1022.4 |
| 20260902130042 | 56 | 360 | 0.0 | 0.0 | 0.00 | 0.00 | 0.00 | 80 | 1022.4 |
| 20260902124550 | 56 | 360 | 0.0 | 0.0 | 0.00 | 0.00 | 0.00 | 79 | 1022.5 |
| 20260902123044 | 56 | 360 | 0.0 | 0.0 | 0.00 | 0.00 | 0.00 | 79 | 1022.4 |
| 20260902121538 | 56 | 265 | 0.0 | 0.0 | 0.00 | 0.00 | 0.00 | 79 | 1022.3 |
| 20260902120036 | 57 | 203 | 0.0 | 0.0 | 0.00 | 0.00 | 0.00 | 78 | 1022.2 |
| 20260902114537 | 57 | 265 | 0.0 | 0.0 | 0.00 | 0.00 | 0.00 | 78 | 1022.1 |
| 20260902113031 | 57 | 272 | 0.0 | 0.0 | 0.00 | 0.00 | 0.00 | 77 | 1022.1 |
| 20260902111537 | 57 | 278 | 0.0 | 0.0 | 0.00 | 0.00 | 0.00 | 76 | 1021.9 |
| 20260902110030 | 57 | 279 | 0.0 | 0.0 | 0.00 | 0.00 | 0.00 | 76 | 1021.7 |
| 20260902104536 | 58 | 241 | 0.0 | 0.0 | 0.00 | 0.00 | 0.00 | 76 | 1021.6 |
| 20260902103022 | 58 | 242 | 0.0 | 2.0 | 0.00 | 0.00 | 0.00 | 74 | 1021.4 |
| 20260902101519 | 58 | 242 | 0.0 | 3.0 | 0.00 | 0.00 | 0.00 | 76 | 1021.2 |
| 20260902100017 | 59 | 243 | 0.0 | 2.0 | 0.00 | 0.00 | 0.00 | 73 | 1021.1 |
| 20260902094520 | 59 | 242 | 1.0 | 2.0 | 0.00 | 0.00 | 0.00 | 72 | 1020.9 |
| 20260902093012 | 60 | 239 | 0.0 | 2.0 | 0.00 | 0.00 | 0.00 | 71 | 1020.8 |
| 20260902091510 | 60 | 273 | 0.0 | 2.0 | 0.00 | 0.00 | 0.00 | 73 | 1020.7 |
| 20260902090008 | 60 | 273 | 0.0 | 4.0 | 0.00 | 0.00 | 0.00 | 71 | 1020.6 |
| 20260902084507 | 60 | 290 | 1.0 | 7.0 | 0.00 | 0.00 | 0.00 | 71 | 1020.6 |
| 20260902083004 | 61 | 276 | 1.0 | 3.0 | 0.00 | 0.00 | 0.00 | 70 | 1020.7 |
| 20260902081604 | 61 | 276 | 0.0 | 4.0 | 0.00 | 0.00 | 0.00 | 69 | 1020.6 |
| 20260902080036 | 60 | 286 | 2.0 | 6.0 | 0.00 | 0.00 | 0.00 | 69 | 1020.7 |
| 20260902074537 | 60 | 285 | 2.0 | 6.0 | 0.00 | 0.00 | 0.00 | 70 | 1020.7 |
| 20260902073035 | 60 | 281 | 3.0 | 8.0 | 0.00 | 0.00 | 0.00 | 71 | 1020.8 |
| 20260902071534 | 61 | 286 | 3.0 | 8.0 | 0.00 | 0.00 | 0.00 | 68 | 1020.8 |
| 20260902070033 | 61 | 309 | 3.0 | 10.0 | 0.00 | 0.00 | 0.00 | 68 | 1020.8 |
| 20260902064534 | 62 | 315 | 2.0 | 10.0 | 0.00 | 0.00 | 0.00 | 66 | 1020.8 |
| 20260902063032 | 61 | 202 | 1.0 | 5.0 | 0.00 | 0.00 | 0.00 | 66 | 1020.8 |
| 20260902061534 | 61 | 312 | 3.0 | 10.0 | 0.00 | 0.00 | 0.00 | 65 | 1020.9 |
| 20260902060034 | 62 | 315 | 5.0 | 13.0 | 0.00 | 0.00 | 0.00 | 64 | 1020.9 |
| 20260902054527 | 62 | 254 | 3.0 | 10.0 | 0.00 | 0.00 | 0.00 | 64 | 1021.1 |
| 20260902053033 | 61 | 274 | 2.0 | 9.0 | 0.00 | 0.00 | 0.00 | 64 | 1021.4 |
| 20260902051519 | 61 | 248 | 3.0 | 10.0 | 0.00 | 0.00 | 0.00 | 67 | 1021.6 |
| 20260902050017 | 60 | 253 | 3.0 | 8.0 | 0.00 | 0.00 | 0.00 | 68 | 1021.9 |
| 20260902044514 | 59 | 304 | 4.0 | 8.0 | 0.00 | 0.00 | 0.00 | 67 | 1022.1 |
| 20260902043012 | 60 | 234 | 2.0 | 7.0 | 0.00 | 0.00 | 0.00 | 67 | 1022.3 |
| 20260902041511 | 60 | 257 | 3.0 | 9.0 | 0.00 | 0.00 | 0.00 | 63 | 1022.3 |